This is the latest recevied weather packets stored in our database for station/object EA1FWM-12. If no packets are shown the sender has not sent any weather packets the latest 10 day(s).
| Time | Temp. | Humidity | Pressure | Rain* | Wind** | Luminosity | Snow |
|---|---|---|---|---|---|---|---|
| 1777782124 | 7.78° C | 93% | 1016.7 hPa | - | - | - | - |
| 1777781225 | 10.56° C | 93% | 1016.7 hPa | - | - | - | - |
| 1777779528 | 7.78° C | 93% | 1016.8 hPa | - | - | - | - |
| 1777778637 | 7.78° C | 93% | 1016.9 hPa | - | - | - | - |
| 1777777721 | 7.78° C | 93% | 1016.9 hPa | - | - | - | - |
| 1777776821 | 7.78° C | 92% | 1016.9 hPa | - | - | - | - |
| 1777775929 | 7.78° C | 92% | 1017 hPa | - | - | - | - |
| 1777774121 | 8.33° C | 92% | 1017.1 hPa | - | - | - | - |
| 1777773222 | 8.89° C | 92% | 1017.3 hPa | - | - | - | - |
| 1777772321 | 8.89° C | 92% | 1017.5 hPa | - | - | - | - |
| 1777771422 | 8.89° C | 92% | 1017.6 hPa | - | - | - | - |
| 1777770522 | 8.33° C | 92% | 1017.7 hPa | - | - | - | - |
| 1777768722 | 8.33° C | 92% | 1018 hPa | - | - | - | - |
| 1777767823 | 8.33° C | 91% | 1018.2 hPa | - | - | - | - |
| 1777766923 | 8.89° C | 91% | 1018.3 hPa | - | - | - | - |
| 1777765131 | 8.89° C | 91% | 1018.5 hPa | - | - | - | - |
| 1777764224 | 9.44° C | 91% | 1018.6 hPa | - | - | - | - |
| 1777763325 | 9.44° C | 91% | 1018.5 hPa | - | - | - | - |
| 1777762433 | 9.44° C | 91% | 1018.6 hPa | - | - | - | - |
| 1777761524 | 9.44° C | 91% | 1018.6 hPa | - | - | - | - |
| 1777760624 | 9.44° C | 91% | 1018.6 hPa | - | - | - | - |
| 1777757924 | 9.44° C | 91% | 1018.8 hPa | - | - | - | - |
| 1777757032 | 9.44° C | 91% | 1018.9 hPa | - | - | - | - |
| 1777756124 | 9.44° C | 90% | 1018.8 hPa | - | - | - | - |
| 1777750724 | 10° C | 89% | 1018.2 hPa | - | - | - | - |
* Rain since midnight (hover to see other rain measurements)
** Current wind speed in m/s (hover to see current wind gust speed)